#timestamp,LO_Frequency,Hit,StdDev 
1643932815.8,286046998.5,N
1643932835.6,286046999.1,N
1643932855.5,286046999.1,N
1643932875.3,286046996.6,N
1643932895.1,286046998.5,N
1643932915.9,286046999.4,N
1643932935.7,286046998.8,N
1643932955.6,286046996.7,N
1643932975.4,286046996.9,N
1643932995.2,286046996.6,N
1643933015.1,286046997.5,N
1643933016.0,286046997.5,N
1643933035.8,286046996.8,N
1643933055.7,286046997.8,N
1643933075.5,286046997.7,N
1643933095.3,286046996.9,N
1643933115.2,286046997.8,N
1643933135.0,286046997.9,N
1643933135.9,286046997.9,N
1643933155.7,286046997.4,N
1643933175.6,286046997.3,N
1643933225.4,286046997.4,E
1643933235.4,286046999.6,N
1643933255.2,286047001.1,P
1643933275.0,286046997.0,P
1643933275.9,286046997.0,N
1643933295.8,286046999.1,N
1643933315.6,286046999.1,N
1643933335.4,286046996.6,N
1643933355.3,286046999.0,N
1643933375.1,286046999.5,N
1643933395.9,286046999.1,N
1643933415.7,286046998.8,N
1643933435.5,286046998.1,N
1643933455.4,286046998.2,N
1643933475.2,286047001.1,N
1643933495.1,286046998.2,N
1643933496.0,286046998.2,N
1643933515.8,286046998.8,N
1643933535.6,286046998.8,N
1643933555.5,286046999.2,N
1643933575.3,286046997.1,N
1643933595.1,286046999.2,N
1643933615.9,286046999.4,N
1643933635.7,286046998.7,N
1643933655.6,286046999.3,N
1643933675.4,286046998.8,N
1643933695.2,286046998.7,N
1643933715.1,286046998.7,N
1643933716.0,286046998.7,N
1643933735.8,286046998.2,N
1643933755.6,286047000.9,N
1643933775.5,286047001.0,N
1643933795.3,286047001.0,N
1643933815.2,286047000.3,N
1643933835.9,286047002.5,N
1643933855.7,286047000.1,N
1643933875.6,286047000.3,N
1643933895.4,286047000.1,N
1643933915.2,286047000.8,N
1643933935.1,286047002.1,N
1643933936.0,286047002.1,N
1643933955.8,286047001.9,N
1643933975.7,286047002.5,N
1643933995.5,286047001.7,N
1643934015.3,286047001.3,N
1643934035.2,286047001.8,N
1643934055.0,286047002.2,N
1643934055.9,286047002.2,N
1643934075.8,286047002.4,N
1643934095.6,286047001.5,N
1643934115.4,286047002.6,N
1643934135.3,286047002.2,N
1643934155.1,286047001.6,N
1643934175.8,286047002.0,N
1643934195.7,286047001.5,N
1643934215.5,286046999.7,N
1643934235.3,286047002.7,N
1643934255.2,286047000.9,N
1643934275.0,286047000.3,N
1643934275.9,286047000.3,N
1643934295.8,286046999.8,N
1643934315.6,286047001.6,N
1643934335.5,286047001.5,N
1643934355.3,286047001.7,N
1643934375.1,286047001.6,N
1643934395.9,286047002.4,N
1643934415.7,286047001.7,N
1643934435.5,286047004.3,Y
1643934455.4,286047002.6,P
1643934475.2,286047000.2,N
1643934495.1,286046999.9,N
1643934496.0,286046999.9,N
1643934515.8,286046999.8,N
1643934535.6,286046999.8,N
1643934555.5,286046999.8,N
1643934575.3,286047002.7,N
1643934595.2,286047002.5,N
1643934615.9,286046999.8,N
1643934635.7,286047002.4,N
1643934655.6,286047002.5,N
1643934675.4,286047000.1,N
1643934695.2,286047000.4,N
1643934715.1,286047000.4,N
1643934716.0,286047000.4,N
1643934735.8,286047000.3,N
1643934755.7,286047000.0,N
1643934775.5,286046998.5,N
1643934795.3,286046998.2,N
1643934815.2,286047001.0,N
1643934835.0,286046998.4,N
1643934835.9,286046998.4,N
1643934855.8,286047000.9,N
1643934875.6,286046998.3,N
1643934895.4,286046998.4,N
1643934915.3,286046998.5,N
1643934935.1,286046998.8,N
1643934955.9,286046996.5,N
1643934975.7,286046998.9,N
1643934995.5,286046999.2,N
1643935015.4,286046999.0,N
1643935035.2,286046998.9,N
1643935055.0,286047000.6,N
1643935055.9,286047000.6,N
1643935075.8,286047000.5,N
1643935095.6,286046998.2,N
1643935115.5,286046998.8,N
1643935135.3,286046999.6,N
1643935155.1,286046997.1,N
1643935175.9,286046996.6,N
1643935195.7,286046999.2,N
1643935215.6,286046997.6,N
1643935235.4,286046997.0,N
1643935255.2,286046999.6,N
1643935275.1,286046996.7,N
1643935276.0,286046996.7,N
1643935295.8,286046996.6,N
1643935315.7,286046998.5,N
1643935335.5,286046999.6,N
1643935355.3,286046996.9,N
1643935375.2,286046997.8,N
1643935395.0,286046997.4,N
1643935395.9,286046997.4,N
1643935415.7,286046997.4,N
1643935435.6,286046997.2,N
1643935455.4,286046996.7,N
1643935475.3,286046999.6,N
1643935495.1,286046999.2,N
1643935515.9,286046996.5,N
1643935535.7,286046998.9,N
1643935555.5,286046998.9,N
1643935575.4,286046998.6,N
1643935595.2,286046998.8,N
1643935615.0,286046998.5,N
1643935615.9,286046998.5,N
1643935635.8,286047001.0,N
1643935655.6,286047000.6,N
1643935675.5,286047000.4,N
1643935695.3,286047000.0,N
1643935715.1,286046998.4,N
1643935735.9,286046998.7,N
1643935755.7,286047002.7,N
1643935775.5,286047000.8,N
1643935795.4,286047000.5,N
1643935815.2,286047000.8,N
1643935835.1,286046998.5,N
1643935836.0,286046998.5,N
1643935855.8,286046999.4,N
1643935875.6,286046999.3,N
1643935895.5,286046999.3,N
1643935915.3,286046999.1,N
1643935935.1,286046996.8,N
1643935955.9,286046997.0,N
1643935975.7,286046997.1,N
1643935995.6,286046997.0,N
1643936015.4,286046996.7,N
1643936035.2,286046999.4,N
1643936055.1,286046998.3,N
1643936056.0,286046998.3,N
1643936075.8,286046998.3,N
1643936095.7,286047000.5,N
1643936115.5,286046998.3,N
1643936135.3,286046998.4,N
1643936155.2,286046998.9,N
1643936175.9,286046998.7,N
1643936195.7,286046998.8,N
1643936215.6,286046998.2,N
1643936235.4,286046998.3,N
1643936255.3,286046998.8,N
1643936275.1,286046999.6,N
1643936276.0,286046999.6,N
1643936295.8,286046998.8,N
1643936315.7,286046999.4,N
1643936335.5,286046998.8,N
1643936355.3,286046998.3,N
1643936375.2,286046999.1,N
1643936395.0,286046996.8,Y
1643936395.9,286046996.8,P
